Погода в Елатьме

Погода в Елатьме : погода сейчас, прогноз погоды и архив. Всё, что Вы хотите узнать о погоде в Елатьме!

Поиск расширенной информации на нашем сайте:

Полезная информация: Юридическая фирма Автоадвокат.

Другие новости

Новости СМИ2

Главная страница сайта

Новости сайта

02.10.2013

Напоминаем, что на нашем новом сайте вы можете получить высокодетализированные прогнозы погоды по пунктам России, СНГ и мира (включающие важные для авиации метеовеличины, такие как направление и скорость ветра, видимость, явления погоды, количество и форма облачности, нижняя и верхняя граница облачности), а также ознакомиться с разнообразными материалами по авиационной метеорологии и подборкой полезных ссылок на эту тему.

Сайт Метеоцентр.Азия посвящён разработке технологий оптимизации авиаметеорологического обслуживания, включая проектирование и перспективное создание нескольких автоматизированных авиаметеорологических систем:
- система выпуска высокодетальных прогностических карт явлений погоды для нижнего воздушного пространства по России и ближнему зарубежью;
- система верификации прогнозов TAF (выпускаемых синоптиками официальных АМСГ РФ и ближнего зарубежья) и AUTOTAF (выпускаемых сайтом Метеоцентр.Азия) - выявление ошибок, онлайн-сопоставление с фактической погодой METAR, автоматическое внесение коррективов в прогнозы при резком отклонении фактической погоды от прогноза, подсчёт оправдываемости прогнозов по элементам и в целом;
- система обработки, анализа и отображения авиаметеорологической информации для применения провайдерами метеорологической информации.

Рекомендуем: Домашний текстиль ивановский текстиль. Покупкапродажа всего на свете.

Погода в Елатьме - сегодня

Время (UTC), дата Ветер
(°,м/с) 
Видим.   Явления Облачность Т
(°С)
Тd
(°С)
f(%) Тe
(°С)
Pmin
(гПа)
dP
(гПа)
Po
(мм)
O2
(г/м3)
Тmin Tmax R s Состояние
почвы
00 24.03.17 280 (З) 10 км    3/3 600 м 
[Sc]
+0 -2 86 +1  1023.9  0.4  755  304           
03 24.03.17 260 (З) 10 км    10/0 верхняя 
[Cc]
-2.1 -2.9 94 -2  1024.2  0.2  755  307  -2.1      <0.5  мокрый или
старый снег
10-40% 
06 24.03.17 160 (Ю) 10 км    10/3 600 м верхняя 
[Sc|Cc]
+3 -0.8 76 +4  1023.3  -0.6  755  301           
09 24.03.17 210 (ЮЗ) 10 км    10/0 средняя, верхняя 
[As trans|Ci fib]
+8.6 -2.8 45 +9  1020.9  -2  753  295           
12 24.03.17 240 (ЮЗ) 10 км    10/10 600 м 
[Sc]
+9.2 -4.3 38 +9  1017.4  -3.4  751  293           
15 24.03.17 200 (Ю) 10 км    10/10 300 м кучево-дожд. 
[Cb cap]
+7 -1.3 55 +7  1014.6  -2.8  749  294    +9.7       
18 24.03.17 320 (СЗ) 10 км  {ливн. осадки}  10/10 300 м кучево-дожд. 
[Cb cap]
+3.9 +1.2 83 +3  1012.6  -2.1  747  297           
21 24.03.17 010 (С) 4000 м  слаб. ливневой дождь  10/10 300 м кучево-дожд. 
[Cb cap]
+2.5 +1.4 92 +3  1009.3  -2.1  744  297           
00 25.03.17 360 (С) 4000 м  слаб. ливневой снег  10/10 300 м кучево-дожд. 
[Cb cap]
+0.2 -0.3 96 -2  1008.7  -0.8  744  300           
03 25.03.17 320 (СЗ) 3{10}  4000 м  дымка{ливн. осадки}  9/9 600 м 
[Sc]
-1.3 -1.8 96 -3  1009.4  0.6  744  302  -1.3    равномерный
мокрый или
старый снег
100% 
06 25.03.17 320 (СЗ) 10 км  {ливн. осадки}  4/4 600 м 
[Cu Sc]
-0.2 -3.3 80 -3  1010.1  0.7  745  301  -1.6         
09 25.03.17 320 (СЗ) 5{11}  10 км  слаб. ливневой снег  10/10 300 м кучево-дожд. 
[Cb cap]
+0.3 -4.7 69 -3  1010.5  0.5  745  300           
12 25.03.17 320 (СЗ) 4{11}  10 км  {ливн. осадки}  10/10 300 м кучево-дожд. 
[Cb cap]
+0.8 -4.3 69 -2  1010.7  0.2  745  300           
15 25.03.17 300 (СЗ) 10 км  {ливн. осадки}  8/4 600 м средняя 
[Sc diur, vesp|Ac trans]
+0.4 -4.8 68 -2  1011.1  0.3  746  300    +1.1  0.0     
18 25.03.17 310 (СЗ) 10 км  {ливн. осадки}  10/6 600 м верхняя 
[Sc|Ci fib]
+0 -3.8 76 -2  1011.5  0.4  746  301           
21 25.03.17 310 (СЗ) 10 км    ясно 
-1.3 -3.5 85 -3  1012.1  0.5  746  303           
00 26.03.17 310 (СЗ) 10 км    3/3 600 м 
[Sc]
-1.3 -4.3 80 -4  1012.9  0.7  747  303           
03 26.03.17 310 (СЗ) 10 км    ясно 100 м 
-2.9 -5.7 81 -5  1014.1  1.1  748  305  -2.9        замёрзшая 
06 26.03.17 320 (СЗ) 10 км    10/0 верхняя 
[Ci fib]
+0.9 -4.1 69 -1  1015  1.1  749  301           
09 26.03.17 300 (СЗ) 10 км    8/8 600 м 
[Sc]
+4.5 -4.8 51 +3  1014.4  -0.3  748  297           
12 26.03.17 300 (СЗ) 10 км    8/8 600 м 
[Sc]
+5.1 -6.6 42 +3  1013.2  -1.2  747  296           
15 26.03.17 280 (З) 10 км    6/6 600 м 
[Sc]
+4.6 -8.8 37 +3  1010.8  -2.4  746  296    +5.9       
18 26.03.17 240 (ЮЗ) 10 км    ясно 
+1.1 -8.1 50 1008.6  -2.3  744  299           
21 26.03.17 240 (ЮЗ) 10 км    10/0 средняя 
[As trans]
+1 -6.7 56 -1  1004.3  -4.3  741  298           
00 27.03.17 250 (З) 5-11{11}  10 км    10/6 600 м средняя 
[Sc|As trans]
+1.6 -6.9 53 -1  998.6  -5.5  736  296           
Время (UTC), дата Ветер
(°,м/с) 
Видим.   Явления Облачность Т
(°С)
Тd
(°С)
f(%) Тe
(°С)
Pmin
(гПа)
dP
(гПа)
Po
(мм)
O2
(г/м3)
Тmin Tmax R s Состояние
почвы

Для получения пояснительной информации подведите курсор к названию столбца.

ПОГОДА в Елатьме - архив

Всё, что Вы хотите узнать о погоде в Елатьме - удобно и подробно!

Выберите нужную дату (начиная с 1 января 2015* года) и нажмите кнопку "Найти".
Будут отображены архивные сводки погоды по пункту Елатьма, начиная с указанной даты.


Отображать данные в формате CSV (для использования в таблицах Excel)


Внимание! Наш архив погоды предназначен исключительно для личного некоммерческого использования в познавательных целях. Если Вам необходимы официальные справки о состоянии погоды (для производственных, юридических, коммерческих и т.п. целей), обращайтесь в органы Росгидромета.

*Примечание: данная дата относится к архиву по метеостанциям СССР (Россия, СНГ, Балтия).
Архив по метеостанциям Зарубежной Европы и Азии (кроме Китая) хранится 10 дней, по другим регионам земного шара (Китай, Африка, Америка, Австралия, Океания) - 1 день.

Елатьма - район местоположения метеостанции


Название, широта, долгота, высота метеостанции:
Елатьма 54.9°ш. 41.8°д. 136 м над ур. моря [Российская Федерация]

Дополнительная информация

В oтличие oт бoльшинства пoгoдных сайтoв мы публикуем пoдрoбную метеoинфoрмацию в детальнoм прoфессиoнальнoм фoрмате.

Характеристики температуры и влажнoсти вoздуха измеряются на высoте 2 м в тени вдали oт зданий и деревьев.
Скoрoсть ветра измеряется на высoте 10 м (на урoвне рoста челoвека скoрoсть ветра ниже в 1.5-2 раза). Если метеoстанция нахoдится в гoрoде или в лесу, тo скoрoсть ветра занижена на 2-4 м/с пo сравнению с oткрытым местoм. Скoрoсть ветра над акватoриями крупных рек и oзёр, а также на вершинах хoлмoв на 2-5 м/с выше, чем в oбычных услoвиях.
Атмoсфернoе давление в разных тoчках местнoсти мoжет значительнo oтличаться oт давления на метеoстанции, в зависимoсти oт услoвий рельефа (при пoдъёме на 10 м давление пoнижается примернo на 1 мм рт.ст.).